STARLINK-35848

Last updated on Sun Dec 07 2025 00:02:05 GMT+0000 (Coordinated Universal Time)

1 66349U 25254B 25340.58335648 -.00127744 00000+0 -23225-2 0 9994 2 66349 53.1602 306.0356 0001034 80.1703 332.0505 15.49357525 5938
UTC large
Height (km)
Speed (km/s)
/
Latitude / Longitude
Inclination (degrees)
Orbital Period (minutes)
Azimuth
Elevation
Range (km)
Doppler Factor

Next 0 passes for location: London (51.5072 / 0.1276)

Sorry there are no passes over London.